www.pogodaiklimat.ru

Погода и климат >> Архив погоды >> Россия >> Камчатский край >> Начики


АРХИВ ПОГОДЫ в Начиках

Время (UTC), дата Ветер
(напр.,м/с)
 
Видим.   Явления Облачность Т
(С)
Тd
(С)
f
(%)
Тe
(С)
Тes
(С)
Комфортность P
(гПа)
Po
(гПа)
Тmin
(С)
Tmax
(С)
R
(мм)
R24
(мм)
S
(см)
12 15.01 ЮВ 1 4000 м слаб. ливневой снег 9/9 600 м
[Cb cap]
-20.4 -23.0 80 -23 -23 1017.2 974.7
15 15.01 ЮВ 1 4000 м слаб. ливневой снег 10/10 600 м
[Cb cap]
-20.3 -22.9 80 -23 -23 1017.9 975.4
18 15.01 штиль 0 4000 м слаб. ливневой снег 10/10 600 м
[Cb cap]
-18.6 -21.2 80 -19 -19 1017.8 975.6
21 15.01 З 1 4000 м слаб. ливневой снег 10/10 600 м
[Cb cap]
-18.4 -20.8 81 -21 -21 1018.0 975.8 -21.7 0.2 134
00 16.01 З 1 4000 м туман на расстоянии 9 баллов -19.0 -21.6 80 -22 -22 1018.3 976.0
03 16.01 Ю 1 50 км {ливн. осадки, туман} 4/3 1000 м
[Sc Ac trans Ci sp]
-18.2 -20.9 79 -21 -20 1015.5 973.4
06 16.01 Ю 1 50 км 7 баллов -22.2 -25.0 78 -25 -25 1014.7 972.0
09 16.01 ЮВ 1 50 км 7 баллов -24.4 -27.5 75 -28 -28 1013.7 970.7 -15.4 0.2
12 16.01 Ю 1 4000 м слаб. ливневой снег 9 баллов -19.8 -22.5 79 -23 -23 1010.1 968.0
15 16.01 СЗ 2 4000 м слаб. ливневой снег 10 баллов -14.9 -16.8 85 -20 -20 1006.5 965.3
18 16.01 В 5
{13}
2000 м слаб. ливневой снег {метель} 10/10 600 м
[Cb cap]
-5.4 -8.1 81 -13 -13 997.3 957.9
21 16.01 В 6 1000 м ливневой снег 10 баллов -4.9 -6.7 87 -13 -13 995.2 956.0 -24.4 2
00 17.01 СВ 6 1000 м ливневой снег 10 баллов -4.1 -5.3 91 -12 -12 989.6 950.7
03 17.01 С 4 500 м ливневой снег 10 баллов -12.5 -14.3 86 -20 -20 988.0 948.0
06 17.01 С 4 2000 м слаб. ливневой снег 10 баллов -15.0 -17.4 82 -23 -23 994.0 953.3
09 17.01 С 5 2000 м слаб. ливневой снег 10 баллов -15.6 -18.2 80 -25 -25 996.9 956.0 -3.8 15
12 17.01 З 2 4000 м слаб. ливневой снег 10 баллов -17.4 -20.0 80 -23 -23 998.5 957.3
15 17.01 Ю 1 50 км 7 баллов -26.9 -30.4 72 -31 -31 опасность
обморожения
1001.6 958.7
18 17.01 штиль 0 50 км {ливн. осадки} 3/3 1000 м
[Sc]
-33.6 -37.8 66 -34 -34 опасность
обморожения
1001.7 957.6
21 17.01 ЮВ 1 50 км 10 баллов -27.0 -30.5 72 -31 -31 опасность
обморожения
1000.2 957.3 -34.2 0.0
00 18.01 СЗ 1 50 км 10 баллов -20.2 -22.9 79 -23 -23 997.7 956.0
03 18.01 СЗ 2 500 м ливневой снег 10/10 300 м
[Cb cap]
-8.4 -9.9 89 -13 -13 990.5 951.0
06 18.01 СВ 7 500 м ливневой снег 10 баллов -5.6 -8.0 83 -14 -14 989.8 950.7
09 18.01 В 4-11
{13}
500 м ливневой снег {метель} 10/10 300 м
[Cb cap]
-4.7 -6.4 88 -11 -11 988.1 949.2 -4.5 4
12 18.01 В 5
{13}
1000 м ливневой снег {метель} 10/10 300 м
[Cb cap]
-4.7 -6.3 89 -12 -12 988.7 949.8
15 18.01 С 3 1000 м ливневой снег 10 баллов -5.5 -8.6 79 -11 -11 989.8 950.7
18 18.01 СВ 3 1000 м ливневой снег 10 баллов -6.3 -8.6 84 -12 -12 988.4 949.3
21 18.01 С 2 2000 м слаб. ливневой снег 10 баллов -8.4 -13.2 68 -13 -13 990.2 950.7 -9.4 8
00 19.01 СЗ 4 4000 м слаб. ливневой снег 10 баллов -12.7 -17.4 68 -20 -20 990.9 950.7 -13.0
03 19.01 С 5 20 км позёмок 10 баллов -12.5 -17.7 65 -21 -21 989.4 949.3
06 19.01 СЗ 4 4000 м слаб. ливневой снег 10 баллов -12.2 -16.4 71 -19 -19 988.0 948.0
09 19.01 С 4 4000 м слаб. ливневой снег 10 баллов -11.0 -14.5 75 -18 -18 987.8 948.0 -7.0 0.4
12 19.01 С 4 2000 м слаб. ливневой снег 10 баллов -9.2 -12.3 78 -16 -16 987.5 948.0
15 19.01 С 3 4000 м слаб. ливневой снег 10 баллов -8.6 -12.7 72 -14 -14 986.1 946.7
18 19.01 С 5 4000 м слаб. ливневой снег 10 баллов -6.9 -10.9 73 -14 -14 985.8 946.7
21 19.01 СЗ 2 2000 м слаб. ливневой снег 10 баллов -6.2 -9.7 76 -10 -10 985.7 946.7 -10.9 1
00 20.01 СЗ 1 2000 м слаб. ливневой снег 10 баллов -5.9 -9.3 77 -8 -8 985.7 946.7
03 20.01 В 3 50 км 9 баллов +1.6 -6.9 53 -2 -2 983.1 945.3
06 20.01 С 3 50 км 10 баллов -2.8 -8.3 66 -8 -8 985.2 946.7
09 20.01 СЗ 2 50 км 7 баллов -6.1 -9.1 79 -10 -10 984.2 945.3 +2.0 0.2
12 20.01 СЗ 3 50 км 9 баллов -3.2 -6.8 76 -8 -8 981.1 942.7
15 20.01 С 1 2000 м слаб. ливневой снег 9 баллов -3.6 -5.1 89 -6 -6 979.7 941.3
18 20.01 В 4 2000 м слаб. ливневой снег 10 баллов -1.8 -2.8 93 -8 -8 983.6 945.3
21 20.01 В 3 500 м ливневой снег 10 баллов -2.7 -3.8 92 -8 -8 990.7 952.0 -6.9 8
00 21.01 ЮВ 4 1000 м ливневой снег 10 баллов -1.9 -3.2 91 -8 -8 993.4 954.7
03 21.01 В 4 1000 м ливневой снег 10 баллов -2.1 -3.5 90 -8 -8 994.8 956.0
06 21.01 ЮВ 1 2000 м слаб. ливневой снег 10 баллов -2.2 -5.2 80 -4 -4 994.8 956.0
09 21.01 СВ 4 50 км 9 баллов -2.1 -8.2 63 -8 -8 994.8 956.0 -0.8 4
12 21.01 С 1 2000 м слаб. ливневой снег 10 баллов -3.8 -5.3 89 -6 -6 993.7 954.7
15 21.01 штиль 0 2000 м слаб. ливневой снег 10 баллов -3.9 -4.4 96 -5 -5 992.2 953.3
18 21.01 СВ 7 500 м ливневой снег 10 баллов -0.3 -2.5 85 -7 -7 991.7 953.3
21 21.01 В 2 200 м ливневой снег 10 баллов -1.5 -2.1 96 -6 -6 994.7 956.0 -4.2 11
00 22.01 СВ 5 200 м ливневой снег 10 баллов -1.1 -2.1 93 -8 -8 997.4 958.7
03 22.01 СВ 3 2000 м слаб. ливневой снег 10 баллов -0.9 -2.2 91 -6 -6 998.8 960.0
06 22.01 СВ 4 500 м ливневой снег 10 баллов -1.3 -2.9 89 -7 -7 1000.2 961.3
09 22.01 В 1 4000 м слаб. ливневой снег 9 баллов -3.0 -7.0 74 -5 -5 1003.2 964.0 -0.7 14

 

Местоположение метеостанции Начики (Камчатский край, Россия): широта 53.12 долгота 157.70 высота над уровнем моря 317 м.

В архиве по умолчанию представлена погода в Начиках за последнюю неделю. Архивные данные за месяц целиком и за предыдущие месяцы, начиная с января 2011 года, Вы можете получить, выбрав интересующий диапазон дат из раскрывающегося списка и нажав кнопку "Ввод!".


*Определитесь, кто Вы:
робот инопланетянин человек

Внимание! Время в таблицах - всемирное. Для получения местного времени необходимо прибавить поправку, которая равна 12 ч.

Смотрите также архив погоды в соседних городах и на ближайших метеорологических станциях:

Погода в Сосновке (Камчатский край, Россия) (40 км)
Погода в Петропавловск-Камч. 2 (Камчатский край, Россия) (54 км)
Погода в Петропавловск-Камчатском (Камчатский край, Россия) (66 км)
Погода в Петропавловском Маяке (Камчатский край, Россия) (72 км)
Погода в Большерецке (Камчатский край, Россия) (99 км)
Погода в Пущино (Камчатский край, Россия) (120 км)
Погода в Водопадной (Камчатский край, Россия) (146 км)
Погода в Соболево (Камчатский край, Россия) (177 км)
Погода в Мильково (Камчатский край, Россия) (181 км)
Погода в Семячике (Камчатский край, Россия) (183 км)

Пояснения к столбцам:

Ветер - указаны скорость ветра в м/с - средняя за 10 мин, порывы в срок и между сроками (в фигурных скобках) и направление, откуда дует ветер: С - северный, СВ - северо-восточный, В - восточный, ЮВ - юго-восточный, Ю - южный, ЮЗ - юго-западный, З - западный, СЗ - северо-западный.
Видимость - горизонтальная дальность видимости в метрах или километрах. При видимости от 1 до 10 км при отсутствии осадков обычно наблюдается дымка, при ухудшении видимости до 1 км и менее - туман. В сухую погоду видимость может ухудшаться дымом, пылью или мглою.
Явления - указаны атмосферные явления, наблюдавшиеся в срок или в последний час перед сроком; фигурными скобками обозначены явления, наблюдавшиеся между сроками (за 1-3 часа до срока); квадратными скобками обозначены град или гололедные отложения с указанием их диаметра в мм.
Облачность - указаны через наклонную черту общая и нижняя облачность в баллах и высота нижней границы облаков в метрах; квадратными скобками обозначены формы облаков: Ci - перистые, Cs - перисто-слоистые, Cc - перисто-кучевые, Ac - высококучевые, As - высокослоистые, Sc - слоисто-кучевые, Ns - слоисто-дождевые, Cu - кучевые, Cb - кучево-дождевые. Подробнее классификацию облаков см. в Атласе облаков (PDF).
T - Температура воздуха - температура, измеренная на высоте 2 м над землей.
Td - Температура точки росы - температура, при понижении до которой содержащийся в воздухе водяной пар достигнет насыщения.
f - Относительная влажность воздуха - влажноcть воздуха, измеренная на высоте 2 м над землей.
Te - Эффективная температура - температура, которую ощущает одетый по сезону человек в тени. Характеристика душности погоды. При расчете учитывается влияние влажности воздуха и скорости ветра на теплоощущения человека.
Tes - Эффективная температура на солнце - температура, которую ощущает человек, с поправкой на солнечный нагрев. Характеристика знойности погоды. Зависит от высоты солнца над горизонтом, облачности и скорости ветра. Ночью, в пасмурную погоду, а также при ветре 12 м/с и более поправка равна нулю.
P - Атмосферное давление - приведенное к уровню моря атмосферное давление.
Po - Атмосферное давление - измеренное на уровне метеостанции атмосферное давление.
Tmin - Минимальная температура - минимум температуры воздуха на высоте 2 м над землей.
Tmax - Максимальная температура - максимум температуры воздуха на высоте 2 м над землей.
R - Количество осадков - Количество выпавших осадков за период времени, мм. При наведении курсора мыши на число - период времени, за который выпало указанное количество осадков.
R24 - Количество осадков - Количество выпавших осадков за 24 часа, мм.
S - Снежный покров - Высота снежного покрова, см. При наведении курсора мыши на число - состояние снежного покрова и степень покрытия местности в баллах.